TimeCST,TemperatureF,Dew PointF,Humidity,Sea Level PressureIn,VisibilityMPH,Wind Direction,Wind SpeedMPH,Gust SpeedMPH,PrecipitationIn,Events,Conditions,WindDirDegrees,DateUTC
12:54 AM,10.0,5.0,80,30.42,10.0,NW,10.4,-,N/A,,Clear,310,2013-01-03 06:54:00
1:54 AM,9.0,3.9,80,30.43,10.0,NW,12.7,-,N/A,,Partly Cloudy,320,2013-01-03 07:54:00
2:54 AM,9.0,3.9,80,30.45,10.0,WNW,11.5,-,N/A,,Partly Cloudy,300,2013-01-03 08:54:00
3:54 AM,12.0,6.1,77,30.45,10.0,NW,12.7,-,N/A,,Mostly Cloudy,310,2013-01-03 09:54:00
4:54 AM,10.0,6.1,84,30.46,10.0,NW,11.5,-,N/A,,Clear,320,2013-01-03 10:54:00
5:54 AM,10.0,6.1,84,30.47,10.0,NW,12.7,-,N/A,,Clear,320,2013-01-03 11:54:00
6:54 AM,7.0,3.9,87,30.51,10.0,NW,9.2,-,N/A,,Clear,310,2013-01-03 12:54:00
7:54 AM,7.0,3.9,87,30.53,10.0,NW,10.4,-,N/A,,Clear,310,2013-01-03 13:54:00
8:54 AM,8.1,5.0,87,30.54,10.0,NW,10.4,-,N/A,,Clear,310,2013-01-03 14:54:00
9:54 AM,10.9,7.0,84,30.55,10.0,WNW,4.6,-,N/A,,Clear,290,2013-01-03 15:54:00
10:54 AM,17.1,10.9,77,30.56,10.0,NW,6.9,-,N/A,,Scattered Clouds,320,2013-01-03 16:54:00
11:54 AM,21.0,14.0,74,30.53,10.0,West,6.9,-,N/A,,Clear,260,2013-01-03 17:54:00
12:54 PM,25.0,16.0,69,30.49,10.0,West,6.9,-,N/A,,Clear,280,2013-01-03 18:54:00
1:54 PM,26.1,18.0,71,30.45,10.0,West,4.6,-,N/A,,Clear,260,2013-01-03 19:54:00
2:54 PM,27.0,17.1,66,30.44,10.0,WNW,4.6,-,N/A,,Clear,290,2013-01-03 20:54:00
3:54 PM,27.0,16.0,63,30.43,10.0,WSW,3.5,-,N/A,,Clear,250,2013-01-03 21:54:00
4:54 PM,24.1,17.1,75,30.45,10.0,SSW,6.9,-,N/A,,Clear,210,2013-01-03 22:54:00
5:54 PM,19.0,12.9,77,30.46,10.0,SW,9.2,-,N/A,,Clear,230,2013-01-03 23:54:00
6:54 PM,16.0,12.0,84,30.46,10.0,SSW,8.1,-,N/A,,Clear,200,2013-01-04 00:54:00
7:54 PM,16.0,12.9,88,30.45,10.0,SSW,5.8,-,N/A,,Clear,200,2013-01-04 01:54:00
8:54 PM,14.0,10.9,88,30.45,10.0,SSW,6.9,-,N/A,,Clear,200,2013-01-04 02:54:00
9:54 PM,12.0,10.0,92,30.43,10.0,SW,5.8,-,N/A,,Clear,230,2013-01-04 03:54:00
10:54 PM,10.0,7.0,87,30.43,10.0,WSW,9.2,-,N/A,,Clear,240,2013-01-04 04:54:00
11:54 PM,9.0,6.1,88,30.43,10.0,WSW,8.1,-,N/A,,Clear,250,2013-01-04 05:54:00